Location: *
(45.9500°N, 9.0833°E)
Time: 06:10:53
(UTC+00:00)

USA 234 - Pass Details

Date: 03 March 2021
Orbit: 1102 x 1105 km, 123.0° (Epoch: 18 April)

Event Time Altitude Azimuth Distance (km) Brightness Sun altitude
Exits shadow 19:39:58 32° 49° (NE) 1,785 4.1 -26.0°
Maximum altitude 19:43:17 83° 325° (NW) 1,116 3.2 -26.5°
Drops below altitude 10° 19:49:49 10° 239° (WSW) 2,957 5.9 -27.6°
Sets 19:52:17 0° 238° (WSW) 3,913 6.6 -28.0°
